EW0742 Weather Reports


time (UTC)temp
C
wind
direction
speed
KPH
gust
KPH
rain 1hr
cm
rain 24hr
cm
rain mn
cm
humidity
%
barometer
mb
20260506201520 6 332 0.0 0.0 0.08 1.52 1.40 95 1007.6
20260506200017 6 321 0.0 0.0 0.05 1.65 1.37 95 1007.6
20260506194517 6 316 0.0 0.0 0.03 1.63 1.35 95 1007.4
20260506193016 6 333 0.0 0.0 0.03 1.63 1.35 95 1007.2
20260506191514 6 335 0.0 0.0 0.00 1.60 1.32 95 1007.2
20260506190013 6 321 0.0 0.0 0.03 1.75 1.32 95 1007.2
20260506184510 6 171 0.0 0.0 0.03 1.75 1.32 95 1007.5
20260506183011 6 170 0.0 0.0 0.03 1.75 1.32 95 1007.5
20260506181508 6 155 0.0 0.0 0.05 1.75 1.32 95 1007.7
20260506180012 6 339 0.0 0.0 0.08 1.75 1.30 95 1007.8
20260506174504 6 339 0.0 0.0 0.10 1.75 1.30 95 1008.2
20260506173008 6 340 0.0 0.0 0.15 1.75 1.30 95 1008.1
20260506171504 6 338 0.0 0.0 0.20 1.73 1.27 95 1008.2
20260506170004 6 338 0.0 0.0 0.20 1.68 1.22 95 1008.1
20260506164504 5 338 0.0 0.0 0.23 1.65 1.19 95 1008.4
20260506163002 5 340 0.0 0.0 0.23 1.60 1.14 95 1008.6
20260506161500 5 336 0.0 0.0 0.23 1.52 1.07 95 1008.7
20260506160111 5 332 0.0 0.0 0.25 1.45 1.02 95 1008.6
20260506154601 5 329 0.0 0.0 0.25 1.42 0.97 95 1008.9
20260506153059 5 339 0.0 0.0 0.23 1.37 0.91 95 1009.0
20260506151557 5 350 0.0 0.0 0.20 1.30 0.84 95 1009.0
20260506150057 5 329 0.0 0.0 0.13 1.19 0.71 95 1008.5
20260506144555 5 335 0.0 0.0 0.13 1.17 0.71 95 1008.6
20260506143054 6 336 0.0 0.0 0.13 1.14 0.69 95 1008.6
20260506141554 6 332 0.0 0.0 0.08 1.09 0.64 95 1008.8
20260506140052 6 335 0.0 0.0 0.10 1.07 0.61 95 1008.9
20260506134551 6 341 0.0 0.0 0.10 1.04 0.58 95 1008.7
20260506133051 6 346 0.0 0.0 0.13 1.02 0.56 95 1008.6
20260506131557 6 25 0.0 0.0 0.10 0.99 0.53 95 1009.0
20260506130103 6 330 0.0 0.0 0.15 0.97 0.51 95 1009.0
20260506124556 6 330 0.0 0.0 0.18 0.94 0.48 95 1009.0
20260506123049 6 330 0.0 0.0 0.18 0.89 0.43 95 1009.0
20260506121546 6 330 0.0 0.0 0.20 0.89 0.43 94 1009.3
20260506120044 6 321 0.0 0.0 0.13 0.81 0.36 94 1009.9
20260506114541 7 321 0.0 0.0 0.10 0.76 0.30 95 1009.7
20260506113047 7 316 0.0 0.0 0.05 0.71 0.25 95 1009.4
20260506111541 7 316 0.0 0.0 0.05 0.69 0.23 95 1008.9
20260506110049 7 316 0.0 0.0 0.05 0.69 0.23 95 1008.7
20260506104547 7 316 0.0 0.0 0.03 0.66 0.20 95 1008.8
20260506103046 7 316 0.0 0.0 0.03 0.66 0.20 95 1008.7
20260506101548 7 316 0.0 0.0 0.03 0.64 0.18 95 1008.8
20260506100052 7 316 0.0 0.0 0.05 0.64 0.18 95 1008.7
20260506094532 7 316 0.0 0.0 0.05 0.64 0.18 95 1008.6
20260506093039 7 316 0.0 0.0 0.05 0.64 0.18 95 1009.1
20260506091535 7 307 0.0 0.0 0.03 0.61 0.15 95 1008.9
20260506090028 8 307 0.0 0.0 0.03 0.58 0.13 95 1009.5
20260506084526 8 307 0.0 0.0 0.03 0.58 0.13 94 1008.9
20260506083023 8 307 0.0 0.0 0.03 0.58 0.13 94 1009.1
20260506081531 8 307 0.0 0.0 0.03 0.58 0.13 94 1009.1
20260506073033 8 304 0.0 0.0 0.00 0.56 0.10 94 1008.9
20260506071517 9 305 0.0 0.0 0.00 0.56 0.10 94 1008.9
20260506061510 10 179 0.0 0.0 0.00 0.56 0.10 94 1008.7
20260506044705 10 26 0.0 0.0 0.15 0.56 0.10 93 1008.1
20260506043108 10 27 0.0 0.0 0.13 0.51 0.05 92 1008.2
20260506041602 11 27 0.0 0.0 0.10 0.48 0.03 90 1007.9
20260506040050 11 51 0.0 0.0 0.08 0.46 0.46 87 1008.1
20260506034620 12 142 0.0 0.0 0.03 0.41 0.41 81 1007.7
20260506033044 12 311 0.0 0.0 0.00 0.38 0.38 78 1007.6
20260506031543 12 330 0.0 1.6 0.00 0.38 0.38 80 1007.3
20260506030041 13 159 0.0 1.6 0.00 0.38 0.38 78 1007.3
20260506024537 13 158 0.0 0.0 0.00 0.38 0.38 74 1007.1
20260506023052 14 163 0.0 0.0 0.00 0.38 0.38 71 1006.9
20260506021535 15 60 0.0 0.0 0.00 0.38 0.38 71 1006.7
20260506020035 15 295 0.0 0.0 0.00 0.38 0.38 75 1006.8
20260506014533 15 154 0.0 4.8 0.00 0.38 0.38 77 1006.8
20260506013030 15 152 0.0 0.0 0.00 0.38 0.38 85 1006.2
20260506011526 15 326 0.0 1.6 0.00 0.38 0.38 83 1005.4
20260506010024 15 131 0.0 0.0 0.00 0.38 0.38 88 1005.0
20260506004533 15 133 0.0 0.0 0.00 0.38 0.38 87 1004.8
20260506003035 16 132 0.0 0.0 0.00 0.38 0.38 85 1004.4
20260506001518 15 163 0.0 0.0 0.00 0.38 0.38 87 1004.2
20260506000116 15 164 0.0 0.0 0.00 0.38 0.38 86 1004.1
20260505234525 16 163 0.0 0.0 0.00 0.38 0.38 83 1004.0
20260505233015 16 162 0.0 0.0 0.00 0.38 0.38 79 1004.0
20260505231516 17 153 0.0 0.0 0.00 0.38 0.38 77 1003.9
20260505230013 17 333 0.0 0.0 0.00 0.38 0.38 76 1003.5
20260505224512 17 145 0.0 3.2 0.00 0.38 0.38 72 1003.4
20260505223011 16 158 0.0 4.8 0.00 0.38 0.38 78 1003.4
20260505221512 15 350 0.0 0.0 0.00 0.38 0.38 87 1003.9
20260505220021 15 338 0.0 0.0 0.00 0.38 0.38 91 1003.8
20260505214507 15 339 0.0 0.0 0.00 0.38 0.38 90 1003.7
20260505213006 15 153 0.0 0.0 0.00 0.38 0.38 90 1003.3
20260505211505 15 146 0.0 0.0 0.03 0.38 0.38 92 1002.9
20260505210005 15 150 0.0 0.0 0.08 0.38 0.38 90 1002.4
20260505204503 15 155 0.0 0.0 0.20 0.38 0.38 88 1002.5
20260505203004 15 128 0.0 0.0 0.00 0.00 0.38 84 1002.4